Weather History for Morris, MN

Change the Weather History Date:

Thursday, December 20, 2012

  Actual Average Record
Temperature  
Mean Temperature 16 °F -  
Max Temperature 32 °F 20 °F 42 °F (2004)
Min Temperature 1 °F 6 °F -14 °F (1996)
Degree Days  
Heating Degree Days 48    
Moisture  
Dew Point 8 °F    
Average Humidity 85    
Maximum Humidity 93    
Minimum Humidity 35    
Precipitation  
Precipitation 0.00 in - - ()
Sea Level Pressure  
Sea Level Pressure 30.06 in    
Wind  
Wind Speed 18 mph (NNW)    
Max Wind Speed 28 mph    
Max Gust Speed 31 mph    
Visibility 6 miles    
Events Snow    
Averages and records for this station are not official NWS values.
T = Trace of Precipitation, MM = Missing Value Source: NWS Daily Summary

Daily Weather History Graph

Daily Weather History Graph

Search for Another Location

Airport:

Trip Planner

Search our weather history database for the weather conditions in past years. The results will help you decide how hot, cold, wet, or windy it might be!

Date:

Astronomy

Dec. 20, 2012 Rise Set
Actual Time 8:00 AM CST 4:42 PM CST
Civil Twilight 7:26 AM CST 5:17 PM CST
Nautical Twilight 6:48 AM CST 5:54 PM CST
Astronomical Twilight 6:12 AM CST 6:30 PM CST
Moon 12:15 PM CST (12/20) 12:32 AM CST (12/20)
Length of Visible Light 9h 50m
Length of Day
8h 41m
First Quarter, 55% of the Moon is Illuminated
Dec 20
First Quarter
Dec 28
Full
Jan 4
Last Quarter
Jan 11
New
Jan 18
First Quarter

Hourly Weather History & Observations

Time (CST) Temp. Windchill Dew Point Humidity Pressure Visibility Wind Dir Wind Speed Gust Speed Precip Events Conditions
12:12 AM 19.4 °F 7.2 °F 17.6 °F 93% 30.00 in 7.0 mi NNW 11.5 mph - N/A   Overcast
12:33 AM 21.2 °F 8.3 °F 17.6 °F 86% 30.01 in 7.0 mi NNW 13.8 mph - N/A   Overcast
1:13 AM 19.4 °F 3.2 °F 17.6 °F 93% 30.01 in 10.0 mi NNW 20.7 mph - N/A   Overcast
1:32 AM 19.4 °F 4.1 °F 17.6 °F 93% 30.01 in 10.0 mi NNW 18.4 mph - N/A   Overcast
1:52 AM 19.4 °F 4.1 °F 15.8 °F 86% 30.01 in 10.0 mi NNW 18.4 mph - N/A   Overcast
2:13 AM 19.4 °F 4.1 °F 15.8 °F 86% 30.01 in 10.0 mi NNW 18.4 mph - N/A   Overcast
2:32 AM 19.4 °F 4.1 °F 15.8 °F 86% 30.02 in 10.0 mi NNW 18.4 mph - N/A   Overcast
2:53 AM 17.6 °F 2.2 °F 15.8 °F 93% 30.02 in 10.0 mi NNW 17.3 mph - N/A   Overcast
3:12 AM 17.6 °F 1.3 °F 15.8 °F 93% 30.02 in 10.0 mi NNW 19.6 mph - N/A   Overcast
3:33 AM 17.6 °F 1.3 °F 15.8 °F 93% 30.01 in 10.0 mi NNW 19.6 mph - N/A   Overcast
3:52 AM 17.6 °F 1.7 °F 15.8 °F 93% 30.02 in 7.0 mi NNW 18.4 mph - N/A   Overcast
4:12 AM 17.6 °F 1.7 °F 14.0 °F 86% 30.01 in 10.0 mi NNW 18.4 mph 24.2 mph N/A   Overcast
4:33 AM 15.8 °F -1.1 °F 12.2 °F 86% 30.01 in 7.0 mi NNW 19.6 mph - N/A   Overcast
4:52 AM 15.8 °F -0.6 °F 12.2 °F 86% 30.01 in 5.0 mi NNW 18.4 mph 25.3 mph N/A   Overcast
5:13 AM 15.8 °F -1.5 °F 14.0 °F 93% 30.01 in 4.0 mi NNW 20.7 mph 25.3 mph N/A   Overcast
5:32 AM 17.6 °F 1.7 °F 14.0 °F 86% 30.00 in 4.0 mi NNW 18.4 mph 25.3 mph N/A   Overcast
5:52 AM 15.8 °F -1.5 °F 14.0 °F 93% 30.01 in 3.0 mi NNW 20.7 mph - N/A   Overcast
6:12 AM 15.8 °F -2.3 °F 14.0 °F 93% 30.02 in 4.0 mi NNW 23.0 mph 28.8 mph N/A   Overcast
6:53 AM 15.8 °F -1.5 °F 12.2 °F 86% 30.03 in 4.0 mi NNW 20.7 mph 24.2 mph N/A   Overcast
7:12 AM 15.8 °F -1.1 °F 12.2 °F 86% 30.03 in 5.0 mi NNW 19.6 mph 25.3 mph N/A   Overcast
7:31 AM 14.0 °F -3.0 °F 10.4 °F 86% 30.04 in 5.0 mi NNW 18.4 mph 25.3 mph N/A   Overcast
7:52 AM 14.0 °F -3.4 °F 10.4 °F 86% 30.04 in 5.0 mi NNW 19.6 mph - N/A   Overcast
8:12 AM 12.2 °F -4.8 °F 10.4 °F 92% 30.04 in 5.0 mi NNW 17.3 mph - N/A   Overcast
8:32 AM 12.2 °F -4.3 °F 10.4 °F 92% 30.04 in 7.0 mi NNW 16.1 mph - N/A   Overcast
8:53 AM 12.2 °F -3.1 °F 10.4 °F 92% 30.04 in 3.0 mi NNW 13.8 mph - N/A   Overcast
9:12 AM 15.8 °F 0.3 °F 10.4 °F 79% 30.04 in 5.0 mi NNW 16.1 mph - N/A   Overcast
9:32 AM 15.8 °F -0.2 °F 12.2 °F 86% 30.05 in 3.0 mi NNW 17.3 mph - N/A   Overcast
9:52 AM 15.8 °F -1.1 °F 12.2 °F 86% 30.06 in 3.0 mi NNW 19.6 mph - N/A   Overcast
10:12 AM 15.8 °F -3.1 °F 12.2 °F 86% 30.06 in 1.8 mi NW 25.3 mph 28.8 mph N/A Snow Light Snow
10:32 AM 15.8 °F -3.1 °F 10.4 °F 79% 30.07 in 2.5 mi NW 25.3 mph 29.9 mph N/A Snow Light Snow
10:52 AM 15.8 °F -1.9 °F 10.4 °F 79% 30.07 in 3.0 mi NNW 21.9 mph 27.6 mph N/A Snow Light Snow
11:12 AM 15.8 °F -1.9 °F 8.6 °F 73% 30.06 in 7.0 mi NNW 21.9 mph 26.5 mph N/A   Overcast
11:32 AM 15.8 °F -2.7 °F 10.4 °F 79% 30.05 in 2.0 mi NNW 24.2 mph - N/A Snow Light Snow
11:53 AM 14.0 °F -5.5 °F 10.4 °F 86% 30.05 in 1.8 mi NNW 25.3 mph 28.8 mph N/A Snow Light Snow
12:12 PM 15.8 °F -2.3 °F 10.4 °F 79% 30.04 in 3.0 mi NNW 23.0 mph 31.1 mph N/A   Haze
12:32 PM 14.0 °F -6.2 °F 8.6 °F 79% 30.04 in 2.5 mi NNW 27.6 mph - N/A   Haze
12:52 PM 14.0 °F -6.2 °F 8.6 °F 79% 30.04 in 2.0 mi NNW 27.6 mph - N/A Snow Light Snow
1:12 PM 14.0 °F -3.9 °F 8.6 °F 79% 30.04 in 5.0 mi NNW 20.7 mph 29.9 mph N/A   Haze
1:32 PM 14.0 °F -4.7 °F 8.6 °F 79% 30.04 in 5.0 mi NNW 23.0 mph 27.6 mph N/A   Haze
1:52 PM 14.0 °F -4.7 °F 8.6 °F 79% 30.04 in 3.0 mi NNW 23.0 mph 27.6 mph N/A Snow Light Snow
2:12 PM 14.0 °F -3.4 °F 8.6 °F 79% 30.04 in 5.0 mi NNW 19.6 mph 25.3 mph N/A Snow Light Snow
2:32 PM 12.2 °F -7.5 °F 8.6 °F 85% 30.05 in 2.5 mi NW 24.2 mph 27.6 mph N/A Snow Light Snow
2:52 PM 12.2 °F -7.5 °F 8.6 °F 85% 30.05 in 2.5 mi NW 24.2 mph - N/A Snow Light Snow
3:12 PM 12.2 °F -7.1 °F 8.6 °F 85% 30.05 in 5.0 mi NW 23.0 mph 27.6 mph N/A Snow Light Snow
3:32 PM 12.2 °F -6.7 °F 6.8 °F 79% 30.06 in 5.0 mi NW 21.9 mph - N/A Snow Light Snow
3:52 PM 10.4 °F -8.6 °F 6.8 °F 85% 30.06 in 5.0 mi NW 20.7 mph - N/A Snow Light Snow
4:12 PM 10.4 °F -8.2 °F 6.8 °F 85% 30.07 in 10.0 mi NW 19.6 mph - N/A   Overcast
4:32 PM 32.0 °F 20.1 °F 6.8 °F 35% 30.07 in 7.0 mi NW 19.6 mph 26.5 mph N/A   Unknown
4:45 PM 8.6 °F - 6.8 °F 92% 30.08 in 5.0 mi North - - N/A Snow Light Snow
5:12 PM 8.6 °F -11.0 °F 3.2 °F 79% 30.08 in 10.0 mi NW 20.7 mph 25.3 mph N/A   Overcast
5:32 PM 8.6 °F -10.5 °F 3.2 °F 79% 30.08 in 10.0 mi NW 19.6 mph - N/A   Overcast
5:52 PM 6.8 °F -12.9 °F 3.2 °F 85% 30.08 in 10.0 mi NW 19.6 mph - N/A   Overcast
6:12 PM 6.8 °F -12.9 °F 3.2 °F 85% 30.09 in 10.0 mi NW 19.6 mph - N/A   Overcast
6:32 PM 6.8 °F -13.4 °F 3.2 °F 85% 30.10 in 10.0 mi NW 20.7 mph - N/A   Overcast
6:52 PM 6.8 °F -11.8 °F 3.2 °F 85% 30.10 in 10.0 mi NNW 17.3 mph - N/A   Overcast
7:12 PM 6.8 °F -13.4 °F 1.4 °F 79% 30.10 in 10.0 mi NW 20.7 mph - N/A   Overcast
7:32 PM 6.8 °F -12.4 °F 3.2 °F 85% 30.10 in 10.0 mi NNW 18.4 mph 25.3 mph N/A   Overcast
7:52 PM 6.8 °F -13.4 °F 1.4 °F 79% 30.11 in 5.0 mi NW 20.7 mph - N/A   Overcast
8:12 PM 5.0 °F -13.6 °F 1.4 °F 85% 30.11 in 5.0 mi NNW 16.1 mph - N/A Snow Light Snow
8:32 PM 5.0 °F -13.0 °F 1.4 °F 85% 30.11 in 5.0 mi NW 15.0 mph 19.6 mph N/A   Overcast
8:52 PM 3.2 °F -15.3 °F -0.4 °F 85% 30.12 in 7.0 mi NW 15.0 mph - N/A   Overcast
9:12 PM 3.2 °F -14.6 °F -0.4 °F 85% 30.13 in 10.0 mi NW 13.8 mph - N/A   Scattered Clouds
9:32 PM 3.2 °F -15.3 °F -0.4 °F 85% 30.14 in 10.0 mi NW 15.0 mph - N/A   Clear
9:52 PM 3.2 °F -16.5 °F -0.4 °F 85% 30.14 in 10.0 mi NW 17.3 mph - N/A   Mostly Cloudy
10:12 PM 3.2 °F -15.3 °F -0.4 °F 85% 30.14 in 7.0 mi NW 15.0 mph - N/A   Scattered Clouds
10:32 PM 3.2 °F -15.3 °F -0.4 °F 85% 30.15 in 10.0 mi NW 15.0 mph - N/A   Clear
10:52 PM 3.2 °F -13.1 °F -0.4 °F 85% 30.16 in 10.0 mi NW 11.5 mph - N/A   Clear
11:12 PM 1.4 °F -16.9 °F -0.4 °F 92% 30.17 in 10.0 mi NW 13.8 mph - N/A   Clear
11:32 PM 1.4 °F -16.9 °F -0.4 °F 92% 30.17 in 10.0 mi NW 13.8 mph - N/A   Scattered Clouds
11:52 PM 1.4 °F -15.3 °F -2.2 °F 85% 30.16 in 10.0 mi NNW 11.5 mph - N/A   Clear